SPOT 7 (40053 NORAD) Tracking and Keplerian Element Data

This shows tracking and keplerian element data for the satellite.

Feedback or suggestion? Click here.




ElementValue
Catalog40053
NameSPOT 7
Epoch Orbit52930
Epoch Day160.21455863
Epoch Year2024
RAAN227.1581
Inclination98.1585
Eccentricity0.0001415
Argument of Perigee81.923
Mean Anonmoly278.213
Mean Motion14.59371435
Decay Rate1.152E-05
L11 40053U 14034A 24160.21455863 .00001152 00000+0 25297-3 0 9997
L22 40053 98.1585 227.1581 0001415 81.9230 278.2130 14.59371435529304



Live tracking and technical data element details for SPOT 7 (NORAD 40053). SPOT 7 can be tracked NOW for your location showing map with azimuth and elevation plus other details from your city location.







IsCatalogInMostPopularTable: catalog: 40053, numindb: 615
Update: records affected: 1



GetName: 40053 SPOT 7

Hit Count: updated at: Tue, 18 Jun 2024 00:12:28 GMT